GW3424 Weather Reports


Display with metric or nautical units.
time (UTC)temp
F
wind
direction
speed
MPH
gust
MPH
rain 1hr
in
rain 24hr
in
rain mn
in
humidity
%
barometer
mb
20260901085550 79 350 1.0 5.0 0.00 0.00 0.00 68 977.4
20260901085051 79 350 3.0 6.0 0.00 0.00 0.00 68 977.5
20260901084553 79 350 3.0 6.0 0.00 0.00 0.00 68 977.5
20260901084051 79 348 3.0 5.0 0.00 0.00 0.00 68 977.5
20260901083550 79 346 1.0 5.0 0.00 0.00 0.00 68 977.7
20260901083101 79 346 2.0 5.0 0.00 0.00 0.00 68 977.6
20260901082550 79 346 1.0 5.0 0.00 0.00 0.00 68 977.7
20260901082050 79 346 1.0 5.0 0.00 0.00 0.00 67 977.7
20260901081550 79 345 2.0 4.0 0.00 0.00 0.00 67 977.6
20260901081050 79 342 1.0 4.0 0.00 0.00 0.00 67 977.5
20260901080550 80 342 2.0 5.0 0.00 0.00 0.00 66 977.6
20260901080100 80 342 2.0 5.0 0.00 0.00 0.00 65 977.5
20260901075550 80 355 1.0 6.0 0.00 0.00 0.00 65 977.7
20260901075049 80 355 2.0 8.0 0.00 0.00 0.00 65 977.7
20260901074549 80 355 4.0 8.0 0.00 0.00 0.00 65 977.6
20260901074049 80 16 3.0 8.0 0.00 0.00 0.00 65 977.6
20260901073550 80 28 5.0 8.0 0.00 0.00 0.00 65 977.4
20260901073050 80 5 3.0 8.0 0.00 0.00 0.00 65 977.4
20260901072551 80 22 4.0 8.0 0.00 0.00 0.00 65 977.6
20260901072050 80 348 3.0 6.0 0.00 0.00 0.00 65 977.3
20260901071550 80 302 2.0 4.0 0.00 0.00 0.00 65 977.4
20260901071050 80 294 2.0 3.0 0.00 0.00 0.00 65 977.3
20260901070550 80 294 1.0 3.0 0.00 0.00 0.00 65 977.2
20260901070052 80 293 0.0 5.0 0.00 0.00 0.00 65 977.3
20260901065550 80 292 2.0 5.0 0.00 0.01 0.00 66 977.3
20260901065050 79 337 2.0 4.0 0.00 0.01 0.00 66 977.2
20260901064551 79 337 0.0 2.0 0.00 0.01 0.00 66 977.2
20260901064049 79 337 0.0 0.0 0.00 0.01 0.00 66 977.2
20260901063549 79 337 0.0 0.0 0.00 0.01 0.00 66 977.3
20260901063055 79 337 0.0 0.0 0.00 0.01 0.00 66 977.3
20260901062550 79 337 0.0 3.0 0.00 0.01 0.00 66 977.1
20260901062053 79 337 0.0 4.0 0.00 0.01 0.00 66 976.8
20260901061550 80 337 2.0 6.0 0.00 0.01 0.00 66 976.8
20260901061050 80 336 3.0 6.0 0.00 0.01 0.00 65 976.8
20260901060552 80 331 3.0 8.0 0.00 0.01 0.00 65 976.7
20260901060050 80 329 4.0 8.0 0.00 0.01 0.00 64 976.7
20260901055550 81 340 4.0 9.0 0.00 0.01 0.00 63 976.6
20260901055050 81 339 5.0 9.0 0.00 0.01 0.00 62 976.6
20260901054550 81 341 5.0 11.0 0.00 0.01 0.00 62 976.6
20260901054050 81 350 6.0 11.0 0.00 0.01 0.00 61 976.7
20260901053552 81 344 7.0 10.0 0.00 0.01 0.00 61 976.7
20260901053058 82 328 3.0 10.0 0.00 0.01 0.00 59 976.7
20260901052549 82 328 5.0 10.0 0.00 0.01 0.00 59 976.7
20260901052049 82 327 6.0 12.0 0.00 0.01 0.00 58 976.7
20260901051552 82 330 5.0 12.0 0.00 0.01 0.00 58 976.8
20260901051050 82 321 7.0 13.0 0.00 0.01 0.00 57 976.7
20260901050550 82 298 8.0 13.0 0.00 0.01 0.00 57 976.7
20260901050050 82 326 9.0 12.0 0.00 0.01 0.00 56 976.7
20260901045550 83 313 7.0 13.0 0.00 0.16 0.00 56 976.7
20260901045049 83 310 9.0 13.0 0.00 0.16 0.00 56 976.7
20260901044550 83 303 9.0 14.0 0.00 0.16 0.00 56 976.6
20260901044050 82 290 9.0 14.0 0.00 0.16 0.00 56 976.6
20260901043550 82 303 9.0 14.0 0.00 0.16 0.00 57 976.6
20260901043050 82 313 9.0 14.0 0.00 0.16 0.00 57 976.5
20260901042549 82 306 10.0 13.0 0.00 0.16 0.00 58 976.5
20260901042052 82 297 8.0 12.0 0.00 0.16 0.00 58 976.4
20260901041553 81 315 8.0 11.0 0.00 0.16 0.00 58 976.3
20260901041050 81 302 8.0 11.0 0.00 0.16 0.00 58 976.3
20260901040550 81 313 6.0 11.0 0.00 0.16 0.00 58 976.2
20260901040050 82 337 7.0 13.0 0.00 0.16 0.00 57 976.3
20260901035551 82 321 7.0 13.0 0.00 0.16 0.00 57 976.3
20260901035050 82 321 7.0 11.0 0.00 0.16 0.00 56 976.3
20260901034550 82 301 7.0 10.0 0.00 0.16 0.00 55 976.2
20260901034050 83 297 6.0 10.0 0.00 0.16 0.00 54 976.2
20260901033550 83 325 5.0 9.0 0.00 0.16 0.00 53 976.3
20260901033050 84 324 3.0 8.0 0.00 0.16 0.00 51 976.3
20260901032550 85 325 3.0 9.0 0.00 0.16 0.00 50 976.2
20260901032050 85 335 5.0 9.0 0.00 0.16 0.00 48 976.2
20260901031550 85 342 4.0 10.0 0.00 0.16 0.00 47 976.2
20260901031049 86 355 6.0 10.0 0.00 0.16 0.00 47 976.1
20260901030549 86 360 4.0 10.0 0.00 0.16 0.00 48 976.0
20260901030050 86 5 4.0 12.0 0.00 0.16 0.00 48 975.8
20260901025550 86 350 8.0 13.0 0.00 0.16 0.00 48 975.8
20260901025050 86 15 7.0 14.0 0.00 0.16 0.00 48 975.7
20260901024550 85 360 9.0 13.0 0.00 0.16 0.00 49 975.7
20260901024049 85 5 8.0 13.0 0.00 0.16 0.00 50 975.6
20260901023549 85 360 7.0 11.0 0.00 0.16 0.00 51 975.6
20260901023049 85 360 8.0 11.0 0.00 0.16 0.00 52 975.5
20260901022550 85 355 6.0 12.0 0.00 0.16 0.00 52 975.6
20260901022050 84 355 8.0 13.0 0.00 0.16 0.00 53 975.6
20260901021550 84 360 7.0 13.0 0.00 0.16 0.00 54 975.4
20260901021050 84 355 4.0 8.0 0.00 0.16 0.00 54 975.4
20260901020551 84 338 3.0 6.0 0.00 0.16 0.00 54 975.4
20260901020052 85 336 3.0 9.0 0.00 0.16 0.00 54 975.6
20260901015550 85 337 4.0 9.0 0.00 0.16 0.00 55 975.7
20260901015049 85 332 3.0 6.0 0.00 0.16 0.00 56 975.5
20260901014550 85 331 3.0 6.0 0.00 0.16 0.00 57 975.6
20260901014051 85 331 2.0 5.0 0.00 0.16 0.00 57 975.5
20260901013552 85 326 3.0 5.0 0.00 0.16 0.00 57 975.5
20260901013100 85 327 3.0 5.0 0.00 0.16 0.00 57 975.5
20260901012549 85 328 3.0 6.0 0.00 0.16 0.00 56 975.6
20260901012049 85 327 3.0 6.0 0.00 0.16 0.00 56 975.6
20260901011549 86 325 4.0 9.0 0.00 0.16 0.00 56 975.5
20260901011050 86 329 4.0 13.0 0.00 0.16 0.00 55 975.6
20260901010551 86 347 8.0 13.0 0.00 0.16 0.00 55 975.5
20260901010052 86 355 8.0 14.0 0.00 0.16 0.00 55 975.3
20260901005553 86 343 7.0 14.0 0.00 0.16 0.00 54 975.4
20260901005049 86 355 7.0 14.0 0.00 0.16 0.00 54 975.5
20260901004550 86 335 10.0 16.0 0.00 0.16 0.00 53 975.6
20260901004049 86 355 9.0 17.0 0.00 0.16 0.00 53 975.6
20260901003551 86 355 11.0 18.0 0.00 0.16 0.00 53 975.6
20260901003050 86 314 11.0 18.0 0.00 0.16 0.00 52 975.6
20260901002550 87 338 12.0 18.0 0.00 0.16 0.00 52 975.6
20260901002053 87 343 13.0 18.0 0.00 0.16 0.00 51 975.6
20260901001550 87 320 7.0 17.0 0.00 0.16 0.00 52 975.4
20260901001049 87 326 11.0 17.0 0.00 0.16 0.00 51 975.4
20260901000549 87 333 10.0 17.0 0.00 0.16 0.00 51 975.7
20260901000049 87 344 10.0 18.0 0.00 0.16 0.00 51 975.7
20260831235550 87 347 11.0 18.0 0.00 0.16 0.00 50 975.7
20260831235052 87 355 11.0 18.0 0.00 0.16 0.00 52 975.6
20260831234556 87 344 10.0 16.0 0.00 0.16 0.00 52 975.7
20260831234053 86 360 12.0 19.0 0.00 0.16 0.00 53 975.9
20260831233549 86 306 12.0 20.0 0.00 0.16 0.00 53 975.9
20260831233055 86 316 12.0 21.0 0.00 0.16 0.00 53 975.9
20260831232549 86 301 14.0 21.0 0.00 0.16 0.00 53 976.0
20260831232049 86 346 10.0 21.0 0.00 0.16 0.00 53 976.1
20260831231550 86 341 10.0 21.0 0.00 0.16 0.00 53 976.1
20260831231054 86 283 12.0 18.0 0.00 0.16 0.00 54 976.1
20260831230550 86 329 11.0 20.0 0.00 0.16 0.00 55 976.1
20260831230049 86 12 10.0 18.0 0.00 0.16 0.00 54 976.2
20260831225549 85 319 12.0 20.0 0.00 0.16 0.00 56 976.2
20260831225051 85 293 11.0 20.0 0.00 0.16 0.00 57 976.2
20260831224550 85 299 11.0 18.0 0.00 0.16 0.00 57 976.1
20260831224050 85 319 9.0 20.0 0.00 0.16 0.00 56 976.1
20260831223551 85 320 10.0 20.0 0.00 0.16 0.00 58 976.2
20260831223056 85 302 11.0 19.0 0.00 0.16 0.00 58 976.3
20260831222550 84 297 11.0 19.0 0.00 0.16 0.00 58 976.6
20260831222049 85 331 14.0 24.0 0.00 0.16 0.00 58 976.5
20260831221549 84 321 15.0 24.0 0.00 0.16 0.00 58 976.7
20260831221049 84 328 13.0 20.0 0.00 0.16 0.00 59 976.7
20260831220553 84 322 16.0 21.0 0.00 0.16 0.00 58 976.9
20260831220050 84 304 15.0 22.0 0.00 0.16 0.00 57 976.9
20260831215550 84 315 13.0 22.0 0.00 0.16 0.00 59 977.1
20260831215050 84 350 15.0 23.0 0.00 0.16 0.00 58 977.5
20260831214602 84 351 15.0 23.0 0.00 0.16 0.00 58 977.3
20260831214049 84 308 14.0 26.0 0.00 0.16 0.00 57 977.5
20260831213549 84 340 15.0 26.0 0.00 0.16 0.00 58 977.6
20260831213054 84 318 16.0 23.0 0.00 0.16 0.00 57 977.8
20260831212554 84 338 13.0 24.0 0.00 0.16 0.00 59 978.0
20260831212050 84 339 14.0 24.0 0.00 0.16 0.00 59 978.1
20260831211550 83 303 14.0 25.0 0.00 0.16 0.00 61 977.9
20260831211050 83 311 17.0 26.0 0.00 0.16 0.00 61 978.1
20260831210549 83 313 17.0 29.0 0.00 0.16 0.00 62 978.1
20260831210049 83 302 17.0 29.0 0.00 0.16 0.00 62 978.4
20260831205550 84 344 17.0 26.0 0.00 0.16 0.00 63 978.5
20260831205050 83 329 16.0 25.0 0.00 0.16 0.00 64 978.6
20260831204555 83 284 16.0 24.0 0.00 0.16 0.00 64 978.6
20260831204053 83 309 18.0 26.0 0.00 0.16 0.00 63 978.8
20260831203552 84 311 13.0 26.0 0.00 0.16 0.00 62 978.7
20260831203059 84 301 13.0 21.0 0.00 0.16 0.00 62 978.7
20260831202552 84 336 13.0 21.0 0.00 0.16 0.00 63 978.7
20260831202050 83 317 15.0 21.0 0.00 0.16 0.00 63 978.7
20260831201602 84 318 15.0 21.0 0.00 0.16 0.00 64 978.7
20260831201051 83 299 14.0 25.0 0.00 0.16 0.00 64 978.7
20260831200550 83 298 16.0 25.0 0.00 0.16 0.00 65 978.8
20260831200051 83 298 16.0 25.0 0.00 0.16 0.00 65 979.0
20260831195553 82 323 14.0 25.0 0.00 0.16 0.00 65 978.9
20260831195053 82 315 15.0 24.0 0.00 0.16 0.00 65 978.8
20260831194550 82 296 16.0 25.0 0.00 0.16 0.00 66 978.9
20260831194050 82 319 15.0 25.0 0.00 0.16 0.00 67 979.0
20260831193550 81 284 16.0 23.0 0.00 0.16 0.00 67 979.0
20260831193121 81 346 14.0 26.0 0.00 0.16 0.00 67 979.0
20260831192549 81 329 13.0 26.0 0.00 0.16 0.00 70 979.1
20260831192052 81 315 16.0 24.0 0.00 0.16 0.00 69 978.9
20260831191552 80 316 13.0 24.0 0.00 0.16 0.00 70 979.1
20260831191151 80 281 17.0 23.0 0.00 0.16 0.00 70 979.1
20260831190650 80 304 17.0 23.0 0.00 0.16 0.00 70 979.1
20260831190152 80 282 15.0 22.0 0.00 0.16 0.00 68 979.2
20260831185550 81 296 15.0 21.0 0.00 0.16 0.00 67 979.1
20260831185052 81 302 13.0 21.0 0.00 0.16 0.00 68 979.4
20260831184049 80 295 12.0 19.0 0.00 0.16 0.00 72 979.4
20260831183550 80 326 12.0 19.0 0.00 0.16 0.00 72 979.5
20260831183058 80 336 13.0 22.0 0.00 0.16 0.00 71 979.3
20260831182551 80 330 14.0 22.0 0.00 0.16 0.00 71 979.4
20260831181050 79 334 13.0 22.0 0.00 0.16 0.00 73 979.4
20260831180549 79 313 15.0 22.0 0.00 0.16 0.00 73 979.3
20260831180151 79 337 17.0 22.0 0.00 0.16 0.00 73 979.5
20260831175151 79 325 11.0 21.0 0.00 0.16 0.00 73 979.7
20260831174549 79 300 16.0 21.0 0.00 0.16 0.00 72 979.8
20260831174050 79 319 15.0 20.0 0.00 0.16 0.00 71 979.6
20260831172550 78 306 13.0 18.0 0.00 0.16 0.00 73 979.9
20260831172049 77 338 11.0 20.0 0.00 0.16 0.00 75 979.8
20260831171549 77 313 14.0 20.0 0.00 0.16 0.00 75 979.8
20260831170050 77 336 9.0 14.0 0.00 0.16 0.00 77 979.8
20260831165549 77 312 8.0 14.0 0.00 0.16 0.00 77 979.8
20260831165050 77 294 10.0 17.0 0.00 0.16 0.00 78 979.8
20260831164606 77 303 12.0 17.0 0.00 0.16 0.00 78 980.0
20260831163551 77 288 10.0 15.0 0.00 0.16 0.00 80 979.9
20260831163050 76 321 8.0 15.0 0.00 0.16 0.00 80 979.9
20260831162550 76 297 4.0 15.0 0.00 0.16 0.00 81 979.8
20260831161050 76 319 11.0 17.0 0.00 0.16 0.00 80 979.4
20260831160549 76 308 9.0 21.0 0.00 0.16 0.00 81 979.1
20260831160103 76 309 11.0 22.0 0.00 0.16 0.00 80 979.1
20260831154604 76 286 13.0 18.0 0.00 0.16 0.00 80 979.0
20260831154050 76 291 11.0 16.0 0.00 0.16 0.00 80 978.8
20260831153050 75 281 9.0 15.0 0.00 0.16 0.00 81 979.1
20260831152553 75 279 11.0 16.0 0.00 0.16 0.00 81 979.0
20260831152051 75 290 9.0 16.0 0.00 0.16 0.00 80 978.8
20260831151550 75 321 9.0 17.0 0.00 0.16 0.00 79 978.8
20260831150554 76 302 12.0 21.0 0.00 0.16 0.00 80 978.7
20260831150054 76 296 9.0 23.0 0.00 0.16 0.00 81 978.7
20260831145549 76 307 12.0 20.0 0.00 0.16 0.00 81 978.5
20260831145049 76 280 13.0 20.0 0.00 0.16 0.00 81 978.6
20260831144557 76 276 12.0 22.0 0.00 0.16 0.00 79 978.5
20260831144150 77 283 14.0 23.0 0.00 0.16 0.00 79 978.2
20260831143550 77 289 14.0 23.0 0.00 0.16 0.00 78 978.1
20260831143050 77 301 13.0 24.0 0.00 0.16 0.00 77 978.1
20260831142550 77 289 10.0 24.0 0.00 0.16 0.00 77 977.9
20260831142050 77 269 14.0 23.0 0.00 0.16 0.00 76 977.9
20260831141551 78 285 11.0 19.0 0.00 0.16 0.00 76 977.8
20260831141050 78 275 11.0 18.0 0.00 0.16 0.00 75 977.6
20260831140549 78 279 11.0 19.0 0.00 0.16 0.00 75 977.5
20260831140053 78 300 9.0 14.0 0.00 0.16 0.00 75 977.3
20260831135550 78 304 8.0 14.0 0.00 0.16 0.00 75 977.1
20260831135050 78 288 9.0 12.0 0.00 0.16 0.00 74 976.9
20260831134558 78 274 5.0 11.0 0.00 0.16 0.00 72 976.8
20260831134049 78 291 0.0 7.0 0.00 0.16 0.00 71 976.5
20260831133549 78 296 1.0 10.0 0.00 0.16 0.00 71 976.4
20260831133050 78 304 7.0 10.0 0.00 0.16 0.00 71 976.3
20260831132549 78 312 4.0 9.0 0.00 0.16 0.00 71 976.3
20260831132051 78 332 5.0 9.0 0.00 0.16 0.00 71 976.2
20260831131559 78 319 1.0 9.0 0.00 0.16 0.00 71 976.1
20260831131049 78 319 4.0 9.0 0.00 0.16 0.00 70 975.9
20260831130549 78 302 1.0 7.0 0.00 0.16 0.00 70 975.9
20260831130049 78 304 1.0 6.0 0.00 0.16 0.00 70 975.8
20260831125549 78 304 1.0 5.0 0.00 0.16 0.00 70 975.9
20260831125050 78 305 1.0 5.0 0.00 0.16 0.00 70 975.9
20260831124550 78 311 0.0 5.0 0.00 0.16 0.00 70 975.6
20260831124052 78 306 1.0 5.0 0.00 0.16 0.00 70 975.6
20260831123550 78 294 0.0 6.0 0.00 0.16 0.00 70 975.7
20260831123049 79 294 3.0 7.0 0.00 0.16 0.00 69 975.5
20260831122550 79 277 2.0 7.0 0.00 0.16 0.00 68 975.3
20260831122049 79 287 2.0 10.0 0.00 0.16 0.00 67 975.3
20260831121550 79 322 5.0 11.0 0.00 0.16 0.00 66 975.4
20260831121049 79 317 7.0 10.0 0.00 0.16 0.00 66 975.4
20260831120550 79 307 4.0 9.0 0.00 0.16 0.00 66 975.3
20260831120050 79 309 4.0 8.0 0.00 0.16 0.00 67 975.3
20260831115549 78 309 2.0 8.0 0.00 0.16 0.00 69 975.3
20260831115049 78 297 1.0 5.0 0.00 0.16 0.00 70 975.3
20260831114549 78 304 2.0 5.0 0.00 0.16 0.00 72 975.3
20260831114051 78 273 0.0 2.0 0.00 0.16 0.00 73 975.3
20260831113551 78 272 0.0 2.0 0.00 0.16 0.00 73 975.1
20260831113050 78 272 0.0 3.0 0.00 0.16 0.00 72 974.9
20260831112551 78 272 1.0 3.0 0.00 0.16 0.00 72 974.9
20260831112050 78 273 0.0 3.0 0.00 0.16 0.00 72 974.9
20260831111553 78 273 0.0 2.0 0.00 0.16 0.00 73 974.7
20260831111049 78 273 0.0 6.0 0.00 0.16 0.00 73 974.5
20260831110552 78 273 1.0 7.0 0.00 0.16 0.00 73 974.4
20260831110049 77 278 1.0 5.0 0.00 0.16 0.00 74 974.3
20260831105550 77 284 2.0 7.0 0.00 0.16 0.00 74 974.3
20260831105051 77 284 2.0 7.0 0.00 0.16 0.00 74 974.4
20260831104551 77 281 2.0 8.0 0.00 0.16 0.00 75 974.3
20260831104049 77 311 4.0 8.0 0.00 0.16 0.00 75 974.1
20260831103549 77 288 3.0 8.0 0.00 0.16 0.00 75 974.0
20260831103051 77 281 3.0 8.0 0.00 0.16 0.00 75 974.0
20260831102549 77 290 3.0 8.0 0.00 0.16 0.00 75 974.2
20260831102049 77 282 2.0 7.0 0.00 0.16 0.00 75 974.2
20260831101551 77 290 1.0 7.0 0.00 0.16 0.00 74 974.3
20260831101050 77 293 2.0 7.0 0.00 0.16 0.00 74 974.3
20260831100551 77 286 2.0 7.0 0.00 0.16 0.00 73 974.3
20260831100104 77 285 1.0 7.0 0.00 0.16 0.00 72 974.4
20260831095552 78 284 3.0 7.0 0.00 0.16 0.00 72 974.4
20260831095050 78 290 1.0 5.0 0.00 0.16 0.00 71 974.4
20260831094550 78 282 0.0 4.0 0.00 0.16 0.00 70 974.4
20260831094050 78 286 2.0 4.0 0.00 0.16 0.00 69 974.5
20260831093550 79 285 1.0 5.0 0.00 0.16 0.00 68 974.5
20260831093057 79 286 2.0 6.0 0.00 0.16 0.00 68 974.5
20260831092551 79 284 2.0 6.0 0.00 0.16 0.00 66 974.5
20260831092050 80 292 5.0 7.0 0.00 0.16 0.00 66 974.4
20260831091549 80 289 2.0 9.0 0.00 0.16 0.00 65 974.5
20260831091049 80 293 3.0 10.0 0.00 0.16 0.00 65 974.6
20260831090549 80 302 5.0 10.0 0.00 0.16 0.00 65 974.7
20260831090058 80 321 6.0 11.0 0.00 0.16 0.00 65 974.6